Regional Weather Roundup
Issued by NWS Sioux Falls, SD

Home | Current Version | Previous Version | Text Only | Print | Product List | Glossary On
Versions: 1 2 3 4 5 6 7 8 9 10 11 12 13 14 15 16 17 18 19 20 21 22 23 24 25 26 27 28 29 30 31 32 33 34 35 36 37 38 39 40 41 42 43 44 45 46 47 48 49 50
000
ASUS43 KFSD 261010
RWRFSD

WEATHER ROUNDUP FOR SE SOUTH DAKOTA/SW MINNESOTA/NW IOWA
NATIONAL WEATHER SERVICE SIOUX FALLS SD
500 AM CDT FRI AUG 26 2016

NOTE: "FAIR" INDICATES FEW OR NO CLOUDS BELOW 12,000 FEET WITH NO
SIGNIFICANT WEATHER AND OR OBSTRUCTIONS TO VISIBILITY.


SDZ038>040-050-052>070-261100-
SOUTHEAST SOUTH DAKOTA

CITY           SKY/WX    TMP DP  RH WIND       PRES   REMARKS
BROOKINGS      FAIR      48  48 100 CALM      30.18S
CHAMBERLAIN    CLOUDY    48  46  94 CALM      30.18R
HURON          FAIR      48  45  89 CALM      30.17S
MADISON        FAIR      46  46 100 NE3       30.18S
MITCHELL       FAIR      50  48  93 CALM      30.18S
SIOUX FALLS    FAIR      52  51  97 CALM      30.17S
WINNER         PTSUNNY   54  49  83 SE3       30.18S
YANKTON        FAIR      52  46  82 NW6       30.15S
$$

MNZ071-072-080-081-089-090-097-098-261100-
SOUTHWEST MINNESOTA

CITY           SKY/WX    TMP DP  RH WIND       PRES   REMARKS
FAIRMONT       FAIR      53  52  96 N3        30.17S
JACKSON        FAIR      52  50  93 CALM      30.18S FOG
LUVERNE        FAIR      50  46  87 CALM      30.17F
MARSHALL       FAIR      51  49  92 SW5       30.17S
MONTEVIDEO     FAIR      52  50  93 W3        30.18S
REDWOOD FALLS  FAIR      53  50  89 W5        30.17S
TRACY          FAIR      54  52  92 W5        30.18S
WINDOM         FAIR      52  50  93 CALM      30.17S
WORTHINGTON    FAIR      51  50  96 S5        30.18S
$$

IAZ001>003-012>014-020>022-031-032-NEZ013-014-SDZ071-261100-
NORTHWEST IOWA

CITY           SKY/WX    TMP DP  RH WIND       PRES   REMARKS
CHEROKEE       FAIR      55  55 100 CALM      30.16S
DENISON        FAIR      55  55 100 CALM      30.15R FOG
ESTHERVILLE    FAIR      50  50 100 NW3       30.17R
LE MARS        FAIR      54  54 100 CALM      30.16F
ORANGE CITY    FAIR      57  55  94 E6        30.16S
SHELDON        FAIR      50  50 100 CALM      30.16S
SIOUX CITY     FAIR      54  52  93 W3        30.16R FOG
SPENCER        FOG       51  49  92 CALM      30.17S VSB 3/4
STORM LAKE     FAIR      57  55  94 E6        30.17S
$$

ABBREVIATIONS USED IN REMARKS
   TC - TEMPERATURE IN CELSIUS
  WCI - WIND CHILL INDEX
   HX - HEAT INDEX
  VSB - VISIBILITY





USA.gov is the U.S. government's official web portal to all federal, state and local government web resources and services.